Year,Month,Day,Hour,Minute,Value (Times are PST for temperature in C)
2019,05,31,00,00,15.40
2019,05,31,00,01,15.40
2019,05,31,00,02,15.40
2019,05,31,00,03,15.30
2019,05,31,00,04,15.30
2019,05,31,00,05,15.30
2019,05,31,00,06,15.30
2019,05,31,00,07,15.30
2019,05,31,00,08,15.20
2019,05,31,00,09,15.20
2019,05,31,00,10,15.20
2019,05,31,00,11,15.20
2019,05,31,00,12,15.20
2019,05,31,00,13,15.10
2019,05,31,00,14,15.10
2019,05,31,00,15,15.10
2019,05,31,00,16,15.00
2019,05,31,00,17,15.00
2019,05,31,00,18,15.00
2019,05,31,00,19,15.00
2019,05,31,00,20,15.00
2019,05,31,00,21,15.00
2019,05,31,00,22,15.00
2019,05,31,00,23,15.00
2019,05,31,00,24,15.00
2019,05,31,00,25,15.00
2019,05,31,00,26,15.00
2019,05,31,00,27,15.00
2019,05,31,00,28,15.00
2019,05,31,00,29,15.00
2019,05,31,00,30,15.00
2019,05,31,00,31,15.00
2019,05,31,00,32,15.00
2019,05,31,00,33,15.00
2019,05,31,00,34,15.00
2019,05,31,00,35,15.00
2019,05,31,00,36,15.00
2019,05,31,00,37,15.00
2019,05,31,00,38,15.00
2019,05,31,00,39,15.00
2019,05,31,00,40,15.00
2019,05,31,00,41,15.00
2019,05,31,00,42,15.00
2019,05,31,00,43,15.00
2019,05,31,00,44,15.00
2019,05,31,00,45,14.90
2019,05,31,00,46,14.90
2019,05,31,00,47,14.90
2019,05,31,00,48,14.90
2019,05,31,00,49,14.80
2019,05,31,00,50,14.80
2019,05,31,00,51,14.80
2019,05,31,00,52,14.80
2019,05,31,00,53,14.70
2019,05,31,00,54,14.70
2019,05,31,00,55,14.70
2019,05,31,00,56,14.70
2019,05,31,00,57,14.70
2019,05,31,00,58,14.70
2019,05,31,00,59,14.70
2019,05,31,01,00,14.70
2019,05,31,01,01,14.70
2019,05,31,01,02,14.70
2019,05,31,01,03,14.70
2019,05,31,01,04,14.60
2019,05,31,01,05,14.60
2019,05,31,01,06,14.60
2019,05,31,01,07,14.60
2019,05,31,01,08,14.60
2019,05,31,01,09,14.60
2019,05,31,01,10,14.60
2019,05,31,01,11,14.60
2019,05,31,01,12,14.60
2019,05,31,01,13,14.60
2019,05,31,01,14,14.60
2019,05,31,01,15,14.60
2019,05,31,01,16,14.60
2019,05,31,01,17,14.60
2019,05,31,01,18,14.60
2019,05,31,01,19,14.60
2019,05,31,01,20,14.60
2019,05,31,01,21,14.60
2019,05,31,01,22,14.60
2019,05,31,01,23,14.60
2019,05,31,01,24,14.60
2019,05,31,01,25,14.60
2019,05,31,01,26,14.60
2019,05,31,01,27,14.60
2019,05,31,01,28,14.60
2019,05,31,01,29,14.60
2019,05,31,01,30,14.60
2019,05,31,01,31,14.60
2019,05,31,01,32,14.60
2019,05,31,01,33,14.60
2019,05,31,01,34,14.60
2019,05,31,01,35,14.60
2019,05,31,01,36,14.60
2019,05,31,01,37,14.60
2019,05,31,01,38,14.50
2019,05,31,01,39,14.50
2019,05,31,01,40,14.50
2019,05,31,01,41,14.40
2019,05,31,01,42,14.40
2019,05,31,01,43,14.40
2019,05,31,01,44,14.40
2019,05,31,01,45,14.40
2019,05,31,01,46,14.40
2019,05,31,01,47,14.40
2019,05,31,01,48,14.30
2019,05,31,01,49,14.30
2019,05,31,01,50,14.30
2019,05,31,01,51,14.30
2019,05,31,01,52,14.30
2019,05,31,01,53,14.30
2019,05,31,01,54,14.30
2019,05,31,01,55,14.30
2019,05,31,01,56,14.30
2019,05,31,01,57,14.30
2019,05,31,01,58,14.30
2019,05,31,01,59,14.30
2019,05,31,02,00,14.20
2019,05,31,02,01,14.20
2019,05,31,02,02,14.20
2019,05,31,02,03,14.20
2019,05,31,02,04,14.20
2019,05,31,02,05,14.10
2019,05,31,02,06,14.10
2019,05,31,02,07,14.10
2019,05,31,02,08,14.10
2019,05,31,02,09,14.10
2019,05,31,02,10,14.10
2019,05,31,02,11,14.10
2019,05,31,02,12,14.10
2019,05,31,02,13,14.10
2019,05,31,02,14,14.10
2019,05,31,02,15,14.10
2019,05,31,02,16,14.10
2019,05,31,02,17,14.10
2019,05,31,02,18,14.10
2019,05,31,02,19,14.10
2019,05,31,02,20,14.10
2019,05,31,02,21,14.10
2019,05,31,02,22,14.00
2019,05,31,02,23,14.00
2019,05,31,02,24,14.00
2019,05,31,02,25,14.00
2019,05,31,02,26,14.00
2019,05,31,02,27,14.00
2019,05,31,02,28,14.00
2019,05,31,02,29,14.00
2019,05,31,02,30,14.00
2019,05,31,02,31,13.90
2019,05,31,02,32,13.90
2019,05,31,02,33,13.90
2019,05,31,02,34,13.90
2019,05,31,02,35,13.90
2019,05,31,02,36,13.90
2019,05,31,02,37,13.90
2019,05,31,02,38,13.90
2019,05,31,02,39,13.80
2019,05,31,02,40,13.80
2019,05,31,02,41,13.80
2019,05,31,02,42,13.80
2019,05,31,02,43,13.80
2019,05,31,02,44,13.80
2019,05,31,02,45,13.80
2019,05,31,02,46,13.80
2019,05,31,02,47,13.80
2019,05,31,02,48,13.80
2019,05,31,02,49,13.70
2019,05,31,02,50,13.70
2019,05,31,02,51,13.70
2019,05,31,02,52,13.70
2019,05,31,02,53,13.70
2019,05,31,02,54,13.60
2019,05,31,02,55,13.60
2019,05,31,02,56,13.60
2019,05,31,02,57,13.60
2019,05,31,02,58,13.60
2019,05,31,02,59,13.60
2019,05,31,03,00,13.60
2019,05,31,03,01,13.60
2019,05,31,03,02,13.60
2019,05,31,03,03,13.60
2019,05,31,03,04,13.60
2019,05,31,03,05,13.70
2019,05,31,03,06,13.60
2019,05,31,03,07,13.60
2019,05,31,03,08,13.60
2019,05,31,03,09,13.60
2019,05,31,03,10,13.60
2019,05,31,03,11,13.60
2019,05,31,03,12,13.60
2019,05,31,03,13,13.60
2019,05,31,03,14,13.50
2019,05,31,03,15,13.50
2019,05,31,03,16,13.50
2019,05,31,03,17,13.50
2019,05,31,03,18,13.50
2019,05,31,03,19,13.50
2019,05,31,03,20,13.50
2019,05,31,03,21,13.50
2019,05,31,03,22,13.50
2019,05,31,03,23,13.50
2019,05,31,03,24,13.50
2019,05,31,03,25,13.50
2019,05,31,03,26,13.50
2019,05,31,03,27,13.50
2019,05,31,03,28,13.40
2019,05,31,03,29,13.40
2019,05,31,03,30,13.50
2019,05,31,03,31,13.50
2019,05,31,03,32,13.50
2019,05,31,03,33,13.50
2019,05,31,03,34,13.50
2019,05,31,03,35,13.50
2019,05,31,03,36,13.50
2019,05,31,03,37,13.50
2019,05,31,03,38,13.50
2019,05,31,03,39,13.40
2019,05,31,03,40,13.40
2019,05,31,03,41,13.40
2019,05,31,03,42,13.40
2019,05,31,03,43,13.40
2019,05,31,03,44,13.40
2019,05,31,03,45,13.40
2019,05,31,03,46,13.30
2019,05,31,03,47,13.30
2019,05,31,03,48,13.30
2019,05,31,03,49,13.30
2019,05,31,03,50,13.30
2019,05,31,03,51,13.30
2019,05,31,03,52,13.30
2019,05,31,03,53,13.30
2019,05,31,03,54,13.30
2019,05,31,03,55,13.30
2019,05,31,03,56,13.30
2019,05,31,03,57,13.30
2019,05,31,03,58,13.30
2019,05,31,03,59,13.20
2019,05,31,04,00,13.20
2019,05,31,04,01,13.20
2019,05,31,04,02,13.20
2019,05,31,04,03,13.20
2019,05,31,04,04,13.20
2019,05,31,04,05,13.20
2019,05,31,04,06,13.20
2019,05,31,04,07,13.20
2019,05,31,04,08,13.20
2019,05,31,04,09,13.20
2019,05,31,04,10,13.20
2019,05,31,04,11,13.20
2019,05,31,04,12,13.20
2019,05,31,04,13,13.20
2019,05,31,04,14,13.20
2019,05,31,04,15,13.20
2019,05,31,04,16,13.20
2019,05,31,04,17,13.20
2019,05,31,04,18,13.20
2019,05,31,04,19,13.20
2019,05,31,04,20,13.20
2019,05,31,04,21,13.20
2019,05,31,04,22,13.20
2019,05,31,04,23,13.20
2019,05,31,04,24,13.20
2019,05,31,04,25,13.20
2019,05,31,04,26,13.20
2019,05,31,04,27,13.20
2019,05,31,04,28,13.20
2019,05,31,04,29,13.20
2019,05,31,04,30,13.20
2019,05,31,04,31,13.20
2019,05,31,04,32,13.20
2019,05,31,04,33,13.20
2019,05,31,04,34,13.20
2019,05,31,04,35,13.20
2019,05,31,04,36,13.10
2019,05,31,04,37,13.10
2019,05,31,04,38,13.10
2019,05,31,04,39,13.10
2019,05,31,04,40,13.20
2019,05,31,04,41,13.20
2019,05,31,04,42,13.20
2019,05,31,04,43,13.20
2019,05,31,04,44,13.20
2019,05,31,04,45,13.20
2019,05,31,04,46,13.20
2019,05,31,04,47,13.20
2019,05,31,04,48,13.10
2019,05,31,04,49,13.10
2019,05,31,04,50,13.10
2019,05,31,04,51,13.10
2019,05,31,04,52,13.10
2019,05,31,04,53,13.10
2019,05,31,04,54,13.10
2019,05,31,04,55,13.20
2019,05,31,04,56,13.20
2019,05,31,04,57,13.10
2019,05,31,04,58,13.10
2019,05,31,04,59,13.10
2019,05,31,05,00,13.10
2019,05,31,05,01,13.10
2019,05,31,05,02,13.10
2019,05,31,05,03,13.10
2019,05,31,05,04,13.10
2019,05,31,05,05,13.10
2019,05,31,05,06,13.10
2019,05,31,05,07,13.10
2019,05,31,05,08,13.10
2019,05,31,05,09,13.00
2019,05,31,05,10,13.00
2019,05,31,05,11,13.00
2019,05,31,05,12,13.00
2019,05,31,05,13,13.00
2019,05,31,05,14,13.00
2019,05,31,05,15,13.00
2019,05,31,05,16,13.00
2019,05,31,05,17,13.00
2019,05,31,05,18,13.00
2019,05,31,05,19,13.00
2019,05,31,05,20,13.00
2019,05,31,05,21,13.00
2019,05,31,05,22,13.00
2019,05,31,05,23,13.00
2019,05,31,05,24,13.00
2019,05,31,05,25,12.90
2019,05,31,05,26,12.90
2019,05,31,05,27,12.90
2019,05,31,05,28,12.90
2019,05,31,05,29,12.90
2019,05,31,05,30,12.90
2019,05,31,05,31,12.90
2019,05,31,05,32,12.90
2019,05,31,05,33,12.90
2019,05,31,05,34,12.90
2019,05,31,05,35,12.90
2019,05,31,05,36,12.90
2019,05,31,05,37,12.90
2019,05,31,05,38,12.80
2019,05,31,05,39,12.80
2019,05,31,05,40,12.80
2019,05,31,05,41,12.80
2019,05,31,05,42,12.80
2019,05,31,05,43,12.80
2019,05,31,05,44,12.80
2019,05,31,05,45,12.80
2019,05,31,05,46,12.80
2019,05,31,05,47,12.80
2019,05,31,05,48,12.80
2019,05,31,05,49,12.80
2019,05,31,05,50,12.80
2019,05,31,05,51,12.80
2019,05,31,05,52,12.80
2019,05,31,05,53,12.80
2019,05,31,05,54,12.80
2019,05,31,05,55,12.80
2019,05,31,05,56,12.80
2019,05,31,05,57,12.80
2019,05,31,05,58,12.80
2019,05,31,05,59,12.80
2019,05,31,06,00,12.80
2019,05,31,06,01,12.80
2019,05,31,06,02,12.80
2019,05,31,06,03,12.80
2019,05,31,06,04,12.80
2019,05,31,06,05,12.80
2019,05,31,06,06,12.80
2019,05,31,06,07,12.80
2019,05,31,06,08,12.80
2019,05,31,06,09,12.80
2019,05,31,06,10,12.80
2019,05,31,06,11,12.80
2019,05,31,06,12,12.80
2019,05,31,06,13,12.90
2019,05,31,06,14,12.90
2019,05,31,06,15,12.90
2019,05,31,06,16,12.90
2019,05,31,06,17,13.00
2019,05,31,06,18,13.00
2019,05,31,06,19,13.00
2019,05,31,06,20,13.00
2019,05,31,06,21,13.00
2019,05,31,06,22,13.00
2019,05,31,06,23,13.00
2019,05,31,06,24,13.00
2019,05,31,06,25,13.00
2019,05,31,06,26,13.00
2019,05,31,06,27,13.00
2019,05,31,06,28,13.00
2019,05,31,06,29,13.00
2019,05,31,06,30,13.00
2019,05,31,06,31,13.00
2019,05,31,06,32,13.00
2019,05,31,06,33,13.00
2019,05,31,06,34,13.00
2019,05,31,06,35,13.10
2019,05,31,06,36,13.10
2019,05,31,06,37,13.10
2019,05,31,06,38,13.10
2019,05,31,06,39,13.10
2019,05,31,06,40,13.10
2019,05,31,06,41,13.10
2019,05,31,06,42,13.10
2019,05,31,06,43,13.10
2019,05,31,06,44,13.10
2019,05,31,06,45,13.10
2019,05,31,06,46,13.10
2019,05,31,06,47,13.10
2019,05,31,06,48,13.20
2019,05,31,06,49,13.20
2019,05,31,06,50,13.20
2019,05,31,06,51,13.30
2019,05,31,06,52,13.30
2019,05,31,06,53,13.30
2019,05,31,06,54,13.30
2019,05,31,06,55,13.30
2019,05,31,06,56,13.40
2019,05,31,06,57,13.50
2019,05,31,06,58,13.50
2019,05,31,06,59,13.60
2019,05,31,07,00,13.60
2019,05,31,07,01,13.70
2019,05,31,07,02,13.80
2019,05,31,07,03,13.80
2019,05,31,07,04,13.90
2019,05,31,07,05,14.00
2019,05,31,07,06,14.10
2019,05,31,07,07,14.20
2019,05,31,07,08,14.20
2019,05,31,07,09,14.30
2019,05,31,07,10,14.40
2019,05,31,07,11,14.50
2019,05,31,07,12,14.60
2019,05,31,07,13,14.70
2019,05,31,07,14,14.80
2019,05,31,07,15,14.80
2019,05,31,07,16,14.90
2019,05,31,07,17,15.00
2019,05,31,07,18,15.00
2019,05,31,07,19,15.00
2019,05,31,07,20,15.10
2019,05,31,07,21,15.20
2019,05,31,07,22,15.30
2019,05,31,07,23,15.30
2019,05,31,07,24,15.40
2019,05,31,07,25,15.40
2019,05,31,07,26,15.50
2019,05,31,07,27,15.60
2019,05,31,07,28,15.60
2019,05,31,07,29,15.70
2019,05,31,07,30,15.80
2019,05,31,07,31,15.80
2019,05,31,07,32,15.90
2019,05,31,07,33,16.00
2019,05,31,07,34,16.10
2019,05,31,07,35,16.20
2019,05,31,07,36,16.30
2019,05,31,07,37,16.30
2019,05,31,07,38,16.40
2019,05,31,07,39,16.40
2019,05,31,07,40,16.40
2019,05,31,07,41,16.50
2019,05,31,07,42,16.50
2019,05,31,07,43,16.60
2019,05,31,07,44,16.60
2019,05,31,07,45,16.60
2019,05,31,07,46,16.70
2019,05,31,07,47,16.70
2019,05,31,07,48,16.70
2019,05,31,07,49,16.70
2019,05,31,07,50,16.80
2019,05,31,07,51,16.90
2019,05,31,07,52,17.00
2019,05,31,07,53,17.10
2019,05,31,07,54,17.20
2019,05,31,07,55,17.30
2019,05,31,07,56,17.40
2019,05,31,07,57,17.40
2019,05,31,07,58,17.40
2019,05,31,07,59,17.40
2019,05,31,08,00,17.50
2019,05,31,08,01,17.50
2019,05,31,08,02,17.50
2019,05,31,08,03,17.50
2019,05,31,08,04,17.40
2019,05,31,08,05,17.40
2019,05,31,08,06,17.40
2019,05,31,08,07,17.40
2019,05,31,08,08,17.30
2019,05,31,08,09,17.30
2019,05,31,08,10,17.20
2019,05,31,08,11,17.10
2019,05,31,08,12,17.00
2019,05,31,08,13,16.90
2019,05,31,08,14,16.90
2019,05,31,08,15,16.90
2019,05,31,08,16,16.80
2019,05,31,08,17,16.80
2019,05,31,08,18,16.80
2019,05,31,08,19,16.90
2019,05,31,08,20,16.90
2019,05,31,08,21,16.90
2019,05,31,08,22,16.90
2019,05,31,08,23,16.90
2019,05,31,08,24,16.90
2019,05,31,08,25,16.80
2019,05,31,08,26,16.80
2019,05,31,08,27,16.80
2019,05,31,08,28,16.80
2019,05,31,08,29,16.90
2019,05,31,08,30,16.90
2019,05,31,08,31,16.90
2019,05,31,08,32,16.90
2019,05,31,08,33,17.00
2019,05,31,08,34,17.00
2019,05,31,08,35,17.00
2019,05,31,08,36,17.00
2019,05,31,08,37,17.00
2019,05,31,08,38,17.00
2019,05,31,08,39,17.10
2019,05,31,08,40,17.10
2019,05,31,08,41,17.20
2019,05,31,08,42,17.20
2019,05,31,08,43,17.30
2019,05,31,08,44,17.30
2019,05,31,08,45,17.40
2019,05,31,08,46,17.50
2019,05,31,08,47,17.70
2019,05,31,08,48,17.80
2019,05,31,08,49,17.90
2019,05,31,08,50,18.00
2019,05,31,08,51,18.10
2019,05,31,08,52,18.20
2019,05,31,08,53,18.30
2019,05,31,08,54,18.30
2019,05,31,08,55,18.40
2019,05,31,08,56,18.50
2019,05,31,08,57,18.60
2019,05,31,08,58,18.70
2019,05,31,08,59,18.80
2019,05,31,09,00,18.80
2019,05,31,09,01,18.80
2019,05,31,09,02,18.80
2019,05,31,09,03,18.80
2019,05,31,09,04,18.80
2019,05,31,09,05,18.70
2019,05,31,09,06,18.70
2019,05,31,09,07,18.70
2019,05,31,09,08,18.70
2019,05,31,09,09,18.70
2019,05,31,09,10,18.70
2019,05,31,09,11,18.70
2019,05,31,09,12,18.70
2019,05,31,09,13,18.80
2019,05,31,09,14,18.80
2019,05,31,09,15,18.90
2019,05,31,09,16,19.00
2019,05,31,09,17,19.10
2019,05,31,09,18,19.20
2019,05,31,09,19,19.30
2019,05,31,09,20,19.30
2019,05,31,09,21,19.40
2019,05,31,09,22,19.50
2019,05,31,09,23,19.50
2019,05,31,09,24,19.60
2019,05,31,09,25,19.70
2019,05,31,09,26,19.80
2019,05,31,09,27,19.80
2019,05,31,09,28,19.90
2019,05,31,09,29,20.00
2019,05,31,09,30,20.00
2019,05,31,09,31,20.10
2019,05,31,09,32,20.10
2019,05,31,09,33,20.20
2019,05,31,09,34,20.20
2019,05,31,09,35,20.20
2019,05,31,09,36,20.30
2019,05,31,09,37,20.30
2019,05,31,09,38,20.40
2019,05,31,09,39,20.40
2019,05,31,09,40,20.40
2019,05,31,09,41,20.40
2019,05,31,09,42,20.30
2019,05,31,09,43,20.30
2019,05,31,09,44,20.30
2019,05,31,09,45,20.30
2019,05,31,09,46,20.30
2019,05,31,09,47,20.30
2019,05,31,09,48,20.30
2019,05,31,09,49,20.30
2019,05,31,09,50,20.20
2019,05,31,09,51,20.20
2019,05,31,09,52,20.10
2019,05,31,09,53,20.00
2019,05,31,09,54,20.00
2019,05,31,09,55,19.90
2019,05,31,09,56,19.80
2019,05,31,09,57,19.80
2019,05,31,09,58,19.80
2019,05,31,09,59,19.70
2019,05,31,10,00,19.70
2019,05,31,10,01,19.70
2019,05,31,10,02,19.70
2019,05,31,10,03,19.70
2019,05,31,10,04,19.80
2019,05,31,10,05,19.80
2019,05,31,10,06,19.90
2019,05,31,10,07,19.90
2019,05,31,10,08,19.90
2019,05,31,10,09,19.90
2019,05,31,10,10,19.90
2019,05,31,10,11,20.00
2019,05,31,10,12,20.00
2019,05,31,10,13,20.10
2019,05,31,10,14,20.20
2019,05,31,10,15,20.20
2019,05,31,10,16,20.30
2019,05,31,10,17,20.30
2019,05,31,10,18,20.30
2019,05,31,10,19,20.30
2019,05,31,10,20,20.40
2019,05,31,10,21,20.40
2019,05,31,10,22,20.40
2019,05,31,10,23,20.50
2019,05,31,10,24,20.50
2019,05,31,10,25,20.60
2019,05,31,10,26,20.60
2019,05,31,10,27,20.60
2019,05,31,10,28,20.60
2019,05,31,10,29,20.60
2019,05,31,10,30,20.60
2019,05,31,10,31,20.60
2019,05,31,10,32,20.50
2019,05,31,10,33,20.50
2019,05,31,10,34,20.50
2019,05,31,10,35,20.60
2019,05,31,10,36,20.60
2019,05,31,10,37,20.70
2019,05,31,10,38,20.70
2019,05,31,10,39,20.80
2019,05,31,10,40,20.80
2019,05,31,10,41,20.80
2019,05,31,10,42,20.80
2019,05,31,10,43,20.80
2019,05,31,10,44,20.80
2019,05,31,10,45,20.80
2019,05,31,10,46,20.80
2019,05,31,10,47,20.80
2019,05,31,10,48,20.70
2019,05,31,10,49,20.70
2019,05,31,10,50,20.80
2019,05,31,10,51,20.80
2019,05,31,10,52,20.80
2019,05,31,10,53,20.80
2019,05,31,10,54,20.80
2019,05,31,10,55,20.80
2019,05,31,10,56,20.90
2019,05,31,10,57,21.00
2019,05,31,10,58,21.00
2019,05,31,10,59,21.10
2019,05,31,11,00,21.10
2019,05,31,11,01,21.20
2019,05,31,11,02,21.20
2019,05,31,11,03,21.30
2019,05,31,11,04,21.30
2019,05,31,11,05,21.30
2019,05,31,11,06,21.30
2019,05,31,11,07,21.30
2019,05,31,11,08,21.40
2019,05,31,11,09,21.40
2019,05,31,11,10,21.50
2019,05,31,11,11,21.50
2019,05,31,11,12,21.60
2019,05,31,11,13,21.60
2019,05,31,11,14,21.60
2019,05,31,11,15,21.50
2019,05,31,11,16,21.40
2019,05,31,11,17,21.40
2019,05,31,11,18,21.30
2019,05,31,11,19,21.30
2019,05,31,11,20,21.30
2019,05,31,11,21,21.20
2019,05,31,11,22,21.20
2019,05,31,11,23,21.10
2019,05,31,11,24,21.10
2019,05,31,11,25,21.10
2019,05,31,11,26,21.10
2019,05,31,11,27,21.00
2019,05,31,11,28,21.00
2019,05,31,11,29,21.00
2019,05,31,11,30,21.10
2019,05,31,11,31,21.20
2019,05,31,11,32,21.20
2019,05,31,11,33,21.30
2019,05,31,11,34,21.30
2019,05,31,11,35,21.40
2019,05,31,11,36,21.40
2019,05,31,11,37,21.40
2019,05,31,11,38,21.50
2019,05,31,11,39,21.50
2019,05,31,11,40,21.60
2019,05,31,11,41,21.60
2019,05,31,11,42,21.70
2019,05,31,11,43,21.70
2019,05,31,11,44,21.80
2019,05,31,11,45,21.80
2019,05,31,11,46,21.80
2019,05,31,11,47,21.90
2019,05,31,11,48,21.90
2019,05,31,11,49,21.80
2019,05,31,11,50,21.80
2019,05,31,11,51,21.80
2019,05,31,11,52,21.80
2019,05,31,11,53,21.80
2019,05,31,11,54,21.80
2019,05,31,11,55,21.80
2019,05,31,11,56,21.80
2019,05,31,11,57,21.80
2019,05,31,11,58,21.80
2019,05,31,11,59,21.80
2019,05,31,12,00,21.80
2019,05,31,12,01,21.80
2019,05,31,12,02,21.80
2019,05,31,12,03,21.90
2019,05,31,12,04,21.90
2019,05,31,12,05,21.90
2019,05,31,12,06,21.90
2019,05,31,12,07,21.90
2019,05,31,12,08,22.00
2019,05,31,12,09,22.00
2019,05,31,12,10,22.00
2019,05,31,12,11,22.00
2019,05,31,12,12,22.00
2019,05,31,12,13,22.00
2019,05,31,12,14,22.00
2019,05,31,12,15,22.00
2019,05,31,12,16,22.00
2019,05,31,12,17,22.00
2019,05,31,12,18,21.90
2019,05,31,12,19,21.80
2019,05,31,12,20,21.80
2019,05,31,12,21,21.80
2019,05,31,12,22,21.80
2019,05,31,12,23,21.90
2019,05,31,12,24,22.10
2019,05,31,12,25,22.10
2019,05,31,12,26,22.20
2019,05,31,12,27,22.30
2019,05,31,12,28,22.40
2019,05,31,12,29,22.50
2019,05,31,12,30,22.60
2019,05,31,12,31,22.80
2019,05,31,12,32,22.80
2019,05,31,12,33,22.90
2019,05,31,12,34,23.00
2019,05,31,12,35,23.00
2019,05,31,12,36,22.90
2019,05,31,12,37,22.80
2019,05,31,12,38,22.90
2019,05,31,12,39,22.90
2019,05,31,12,40,23.00
2019,05,31,12,41,23.00
2019,05,31,12,42,23.00
2019,05,31,12,43,23.10
2019,05,31,12,44,23.10
2019,05,31,12,45,23.10
2019,05,31,12,46,23.10
2019,05,31,12,47,23.10
2019,05,31,12,48,23.20
2019,05,31,12,49,23.20
2019,05,31,12,50,23.20
2019,05,31,12,51,23.20
2019,05,31,12,52,23.20
2019,05,31,12,53,23.10
2019,05,31,12,54,23.10
2019,05,31,12,55,23.20
2019,05,31,12,56,23.20
2019,05,31,12,57,23.20
2019,05,31,12,58,23.30
2019,05,31,12,59,23.30
2019,05,31,13,00,23.30
2019,05,31,13,01,23.40
2019,05,31,13,02,23.40
2019,05,31,13,03,23.50
2019,05,31,13,04,23.60
2019,05,31,13,05,23.70
2019,05,31,13,06,23.70
2019,05,31,13,07,23.80
2019,05,31,13,08,23.80
2019,05,31,13,09,23.80
2019,05,31,13,10,23.80
2019,05,31,13,11,23.80
2019,05,31,13,12,23.80
2019,05,31,13,13,23.70
2019,05,31,13,14,23.70
2019,05,31,13,15,23.70
2019,05,31,13,16,23.60
2019,05,31,13,17,23.60
2019,05,31,13,18,23.60
2019,05,31,13,19,23.60
2019,05,31,13,20,23.60
2019,05,31,13,21,23.60
2019,05,31,13,22,23.60
2019,05,31,13,23,23.60
2019,05,31,13,24,23.70
2019,05,31,13,25,23.70
2019,05,31,13,26,23.70
2019,05,31,13,27,23.80
2019,05,31,13,28,23.90
2019,05,31,13,29,23.90
2019,05,31,13,30,23.90
2019,05,31,13,31,24.00
2019,05,31,13,32,24.00
2019,05,31,13,33,24.00
2019,05,31,13,34,23.90
2019,05,31,13,35,23.90
2019,05,31,13,36,23.90
2019,05,31,13,37,23.80
2019,05,31,13,38,23.70
2019,05,31,13,39,23.70
2019,05,31,13,40,23.60
2019,05,31,13,41,23.60
2019,05,31,13,42,23.60
2019,05,31,13,43,23.60
2019,05,31,13,44,23.60
2019,05,31,13,45,23.60
2019,05,31,13,46,23.60
2019,05,31,13,47,23.60
2019,05,31,13,48,23.70
2019,05,31,13,49,23.70
2019,05,31,13,50,23.70
2019,05,31,13,51,23.80
2019,05,31,13,52,23.90
2019,05,31,13,53,24.00
2019,05,31,13,54,24.10
2019,05,31,13,55,24.10
2019,05,31,13,56,24.10
2019,05,31,13,57,24.20
2019,05,31,13,58,24.20
2019,05,31,13,59,24.20
2019,05,31,14,00,24.20
2019,05,31,14,01,24.20
2019,05,31,14,02,24.10
2019,05,31,14,03,24.10
2019,05,31,14,04,24.10
2019,05,31,14,05,24.10
2019,05,31,14,06,24.10
2019,05,31,14,07,24.10
2019,05,31,14,08,24.10
2019,05,31,14,09,24.10
2019,05,31,14,10,24.10
2019,05,31,14,11,24.10
2019,05,31,14,12,24.00
2019,05,31,14,13,24.10
2019,05,31,14,14,24.10
2019,05,31,14,15,24.10
2019,05,31,14,16,24.10
2019,05,31,14,17,24.20
2019,05,31,14,18,24.20
2019,05,31,14,19,24.20
2019,05,31,14,20,24.30
2019,05,31,14,21,24.30
2019,05,31,14,22,24.30
2019,05,31,14,23,24.30
2019,05,31,14,24,24.30
2019,05,31,14,25,24.20
2019,05,31,14,26,24.30
2019,05,31,14,27,24.30
2019,05,31,14,28,24.30
2019,05,31,14,29,24.40
2019,05,31,14,30,24.30
2019,05,31,14,31,24.30
2019,05,31,14,32,24.30
2019,05,31,14,33,24.30
2019,05,31,14,34,24.30
2019,05,31,14,35,24.30
2019,05,31,14,36,24.40
2019,05,31,14,37,24.50
2019,05,31,14,38,24.60
2019,05,31,14,39,24.70
2019,05,31,14,40,24.80
2019,05,31,14,41,24.90
2019,05,31,14,42,25.00
2019,05,31,14,43,25.10
2019,05,31,14,44,25.00
2019,05,31,14,45,24.90
2019,05,31,14,46,24.80
2019,05,31,14,47,24.80
2019,05,31,14,48,24.80
2019,05,31,14,49,24.80
2019,05,31,14,50,24.80
2019,05,31,14,51,24.90
2019,05,31,14,52,24.90
2019,05,31,14,53,24.90
2019,05,31,14,54,24.80
2019,05,31,14,55,24.70
2019,05,31,14,56,24.70
2019,05,31,14,57,24.70
2019,05,31,14,58,24.70
2019,05,31,14,59,24.70
2019,05,31,15,00,24.70
2019,05,31,15,01,24.70
2019,05,31,15,02,24.80
2019,05,31,15,03,24.80
2019,05,31,15,04,24.80
2019,05,31,15,05,24.70
2019,05,31,15,06,24.80
2019,05,31,15,07,24.80
2019,05,31,15,08,24.80
2019,05,31,15,09,24.80
2019,05,31,15,10,24.80
2019,05,31,15,11,24.80
2019,05,31,15,12,24.80
2019,05,31,15,13,24.80
2019,05,31,15,14,24.80
2019,05,31,15,15,24.80
2019,05,31,15,16,24.80
2019,05,31,15,17,24.80
2019,05,31,15,18,24.90
2019,05,31,15,19,24.90
2019,05,31,15,20,24.90
2019,05,31,15,21,24.90
2019,05,31,15,22,24.90
2019,05,31,15,23,24.80
2019,05,31,15,24,24.70
2019,05,31,15,25,24.70
2019,05,31,15,26,24.70
2019,05,31,15,27,24.70
2019,05,31,15,28,24.70
2019,05,31,15,29,24.60
2019,05,31,15,30,24.60
2019,05,31,15,31,24.60
2019,05,31,15,32,24.70
2019,05,31,15,33,24.70
2019,05,31,15,34,24.70
2019,05,31,15,35,24.70
2019,05,31,15,36,24.70
2019,05,31,15,37,24.70
2019,05,31,15,38,24.70
2019,05,31,15,39,24.70
2019,05,31,15,40,24.70
2019,05,31,15,41,24.60
2019,05,31,15,42,24.60
2019,05,31,15,43,24.60
2019,05,31,15,44,24.60
2019,05,31,15,45,24.60
2019,05,31,15,46,24.60
2019,05,31,15,47,24.70
2019,05,31,15,48,24.70
2019,05,31,15,49,24.70
2019,05,31,15,50,24.70
2019,05,31,15,51,24.80
2019,05,31,15,52,24.80
2019,05,31,15,53,24.90
2019,05,31,15,54,24.90
2019,05,31,15,55,24.90
2019,05,31,15,56,24.80
2019,05,31,15,57,24.80
2019,05,31,15,58,24.80
2019,05,31,15,59,24.80
2019,05,31,16,00,24.80
2019,05,31,16,01,24.70
2019,05,31,16,02,24.60
2019,05,31,16,03,24.50
2019,05,31,16,04,24.50
2019,05,31,16,05,24.30
2019,05,31,16,06,24.30
2019,05,31,16,07,24.30
2019,05,31,16,08,24.20
2019,05,31,16,09,24.20
2019,05,31,16,10,24.20
2019,05,31,16,11,24.20
2019,05,31,16,12,24.20
2019,05,31,16,13,24.20
2019,05,31,16,14,24.20
2019,05,31,16,15,24.30
2019,05,31,16,16,24.30
2019,05,31,16,17,24.30
2019,05,31,16,18,24.30
2019,05,31,16,19,24.20
2019,05,31,16,20,24.10
2019,05,31,16,21,24.10
2019,05,31,16,22,24.00
2019,05,31,16,23,24.00
2019,05,31,16,24,24.00
2019,05,31,16,25,24.00
2019,05,31,16,26,24.10
2019,05,31,16,27,24.10
2019,05,31,16,28,24.00
2019,05,31,16,29,24.10
2019,05,31,16,30,24.10
2019,05,31,16,31,24.10
2019,05,31,16,32,24.00
2019,05,31,16,33,24.00
2019,05,31,16,34,23.90
2019,05,31,16,35,23.90
2019,05,31,16,36,23.90
2019,05,31,16,37,23.90
2019,05,31,16,38,23.90
2019,05,31,16,39,23.90
2019,05,31,16,40,23.90
2019,05,31,16,41,23.90
2019,05,31,16,42,24.00
2019,05,31,16,43,24.00
2019,05,31,16,44,24.00
2019,05,31,16,45,24.10
2019,05,31,16,46,24.10
2019,05,31,16,47,24.10
2019,05,31,16,48,24.20
2019,05,31,16,49,24.20
2019,05,31,16,50,24.20
2019,05,31,16,51,24.30
2019,05,31,16,52,24.30
2019,05,31,16,53,24.30
2019,05,31,16,54,24.30
2019,05,31,16,55,24.20
2019,05,31,16,56,24.20
2019,05,31,16,57,24.20
2019,05,31,16,58,24.20
2019,05,31,16,59,24.20
2019,05,31,17,00,24.20
2019,05,31,17,01,24.20
2019,05,31,17,02,24.30
2019,05,31,17,03,24.30
2019,05,31,17,04,24.40
2019,05,31,17,05,24.40
2019,05,31,17,06,24.50
2019,05,31,17,07,24.50
2019,05,31,17,08,24.60
2019,05,31,17,09,24.50
2019,05,31,17,10,24.60
2019,05,31,17,11,24.60
2019,05,31,17,12,24.60
2019,05,31,17,13,24.60
2019,05,31,17,14,24.60
2019,05,31,17,15,24.70
2019,05,31,17,16,24.70
2019,05,31,17,17,24.80
2019,05,31,17,18,24.90
2019,05,31,17,19,25.00